Terminal Aerodrome Forecast
Issued by NWS

Home | Current Version | Previous Version | Text Only | Print | Product List | Glossary On
Versions: 1 2 3 4 5 6 7 8 9 10 11 12 13 14 15 16 17 18
000
FTUS44 KOUN 080520
TAFHBR
TAF
KHBR 080520Z 0806/0906 02015KT P6SM SCT015 BKN150 BKN250
     FM081400 36014KT P6SM SCT250
     FM090000 04006KT P6SM SCT100=

USA.gov is the U.S. government's official web portal to all federal, state and local government web resources and services.